FW0960 Weather Reports


time (UTC)temp
F
wind
direction
speed
knots
gust
knots
rain 1hr
in
rain 24hr
in
rain mn
in
humidity
%
barometer
mb
20260904232153 82 144 0.0 0.0 0.00 0.63 0.63 80 1011.3
20260904231650 82 144 0.0 0.0 0.00 0.63 0.63 79 1011.4
20260904231140 82 145 0.0 0.0 0.00 0.63 0.63 79 1011.3
20260904230639 82 145 0.0 0.0 0.00 0.63 0.63 79 1011.7
20260904230132 82 145 0.0 0.0 0.00 0.63 0.63 79 1011.9
20260904225633 82 145 0.0 0.9 0.00 0.63 0.63 79 1012.0
20260904225134 83 145 0.0 0.9 0.00 0.63 0.63 79 1012.2
20260904224636 83 145 0.0 0.9 0.00 0.63 0.63 80 1012.1
20260904224138 83 145 0.0 0.9 0.00 0.63 0.63 80 1012.3
20260904223633 83 145 0.0 0.9 0.00 0.63 0.63 78 1012.3
20260904223139 83 144 0.0 0.9 0.00 0.63 0.63 78 1012.4
20260904222135 83 144 0.0 1.7 0.00 0.63 0.63 78 1012.4
20260904221134 84 144 0.0 1.7 0.00 0.63 0.63 78 1012.5
20260904220634 84 144 0.0 1.7 0.00 0.63 0.63 79 1012.5
20260904220132 84 144 0.0 1.7 0.00 0.63 0.63 79 1012.4
20260904215635 84 144 0.0 0.9 0.00 0.63 0.63 78 1012.4
20260904215132 84 144 0.0 0.9 0.00 0.63 0.63 77 1012.3
20260904214635 85 144 0.9 0.9 0.00 0.63 0.63 77 1012.3
20260904214133 85 143 0.9 1.7 0.00 0.63 0.63 78 1012.1
20260904213630 85 141 0.0 1.7 0.00 0.63 0.63 76 1011.8
20260904213128 85 129 0.0 1.7 0.00 0.63 0.63 77 1011.4
20260904212621 85 129 0.0 1.7 0.00 0.63 0.63 75 1011.4
20260904212120 85 143 0.0 1.7 0.00 0.63 0.63 75 1011.5
20260904211705 86 143 0.9 1.7 0.00 0.63 0.63 75 1011.9
20260904210618 86 148 0.9 3.5 0.00 0.63 0.63 75 1011.7
20260904210126 86 144 0.9 3.5 0.00 0.63 0.63 74 1011.9
20260904205618 86 198 0.9 2.6 0.00 0.63 0.63 75 1012.2
20260904204618 86 191 0.9 2.6 0.00 0.63 0.63 74 1012.1
20260904204120 86 167 0.9 2.6 0.00 0.63 0.63 72 1012.1
20260904203115 86 178 0.0 2.6 0.00 0.63 0.63 73 1011.9
20260904202110 86 153 0.9 4.3 0.00 0.63 0.63 73 1011.9
20260904201616 86 165 0.9 3.5 0.00 0.63 0.63 75 1011.9
20260904201109 86 198 0.9 1.7 0.00 0.63 0.63 77 1012.1
20260904200608 86 204 0.9 1.7 0.00 0.63 0.63 74 1012.2
20260904195609 85 205 0.9 2.6 0.00 0.63 0.63 76 1012.3
20260904195104 85 204 0.9 1.7 0.00 0.63 0.63 77 1012.3
20260904194608 86 204 0.9 2.6 0.00 0.63 0.63 77 1012.4
20260904194107 86 205 0.0 2.6 0.00 0.63 0.63 76 1012.5
20260904193606 86 205 0.0 2.6 0.00 0.63 0.63 74 1012.5
20260904193202 86 205 0.0 1.7 0.00 0.63 0.63 75 1012.5
20260904192104 86 205 0.9 2.6 0.00 0.63 0.63 75 1012.6
20260904191600 86 148 0.9 2.6 0.00 0.63 0.63 75 1012.6
20260904190058 86 145 0.9 1.7 0.00 0.63 0.63 75 1012.7
20260904185555 86 149 0.9 4.3 0.00 0.63 0.63 76 1012.8
20260904185056 86 153 0.9 4.3 0.00 0.63 0.63 76 1012.9
20260904184558 85 148 0.9 2.6 0.00 0.63 0.63 75 1013.0
20260904184056 85 142 0.9 3.5 0.00 0.63 0.63 74 1013.0
20260904183600 85 150 0.9 3.5 0.00 0.63 0.63 74 1013.0
20260904183100 86 190 0.9 3.5 0.00 0.63 0.63 74 1012.9
20260904182559 86 202 0.0 1.7 0.00 0.63 0.63 75 1013.1
20260904182054 85 202 0.9 1.7 0.00 0.63 0.63 74 1013.0
20260904181600 85 203 0.9 1.7 0.00 0.63 0.63 75 1013.1
20260904181059 85 200 0.9 1.7 0.00 0.63 0.63 76 1013.1
20260904180055 85 186 0.0 2.6 0.00 0.63 0.63 76 1013.2
20260904175602 85 185 0.9 3.5 0.00 0.63 0.63 74 1013.3
20260904174633 85 186 0.9 3.5 0.00 0.63 0.63 75 1013.4
20260904173554 85 200 0.9 1.7 0.00 0.63 0.63 75 1013.3
20260904173049 84 201 0.9 1.7 0.00 0.63 0.63 74 1013.3
20260904171552 84 207 0.9 2.6 0.00 0.63 0.63 77 1013.4
20260904171053 84 180 0.9 2.6 0.00 0.63 0.63 77 1013.3
20260904170551 84 194 0.9 2.6 0.00 0.63 0.63 79 1013.4
20260904170052 84 205 0.9 1.7 0.00 0.63 0.63 78 1013.3
20260904165546 84 205 0.9 3.5 0.00 0.63 0.63 77 1013.4
20260904165055 83 205 1.7 5.2 0.00 0.63 0.63 80 1013.5
20260904164050 83 209 2.6 6.1 0.00 0.63 0.63 79 1013.6
20260904163548 83 210 1.7 6.1 0.00 0.63 0.63 79 1013.7
20260904163046 83 213 2.6 6.1 0.00 0.63 0.63 78 1013.8
20260904162546 83 213 2.6 5.2 0.00 0.63 0.63 78 1013.9
20260904162046 83 215 1.7 6.1 0.00 0.63 0.63 80 1013.9
20260904161618 83 227 1.7 6.1 0.00 0.63 0.63 80 1013.9
20260904160541 82 194 2.6 6.1 0.00 0.63 0.63 79 1014.0
20260904160038 82 182 2.6 5.2 0.00 0.63 0.63 82 1013.9
20260904155539 82 182 2.6 7.0 0.00 0.63 0.63 79 1013.9
20260904154113 81 175 1.7 5.2 0.00 0.63 0.63 82 1013.7
20260904153534 81 198 2.6 7.0 0.00 0.63 0.63 82 1013.8
20260904152034 80 210 2.6 6.1 0.00 0.63 0.63 83 1013.9
20260904151534 80 207 2.6 5.2 0.00 0.63 0.63 83 1013.7
20260904151034 80 146 2.6 8.7 0.00 0.63 0.63 86 1013.8
20260904150539 80 209 2.6 8.7 0.00 0.63 0.63 84 1013.9
20260904145531 79 160 3.5 7.8 0.00 0.63 0.63 87 1013.9
20260904144032 78 211 3.5 7.0 0.00 0.63 0.63 87 1013.9
20260904143535 78 215 3.5 7.0 0.00 0.63 0.63 88 1014.0
20260904142531 77 226 2.6 7.8 0.00 0.63 0.63 90 1013.9
20260904142032 77 173 2.6 7.8 0.00 0.63 0.63 91 1013.9
20260904141532 77 163 2.6 6.1 0.00 0.63 0.63 90 1013.9
20260904141029 77 207 1.7 6.1 0.00 0.63 0.63 92 1013.7
20260904140620 77 205 1.7 5.2 0.00 0.63 0.63 94 1013.7
20260904134031 75 117 1.7 7.8 0.00 0.63 0.63 100 1013.7
20260904133530 75 208 1.7 7.0 0.00 0.63 0.63 100 1013.7
20260904133030 75 208 1.7 7.0 0.00 0.63 0.63 100 1013.6
20260904132535 74 227 1.7 7.0 0.00 0.63 0.63 100 1013.6
20260904131525 74 144 1.7 4.3 0.00 0.63 0.63 100 1013.7
20260904131017 74 146 1.7 4.3 0.00 0.63 0.63 100 1013.6
20260904130520 74 142 0.9 4.3 0.00 0.63 0.63 100 1013.5
20260904125016 74 109 0.9 5.2 0.00 0.63 0.63 100 1013.5
20260904124511 74 111 0.9 3.5 0.00 0.63 0.63 100 1013.6
20260904124012 74 111 0.9 5.2 0.00 0.63 0.63 100 1013.6
20260904123511 73 105 0.9 5.2 0.00 0.63 0.63 100 1013.6
20260904123010 73 107 0.9 2.6 0.00 0.63 0.63 100 1013.6
20260904122509 73 107 0.9 3.5 0.00 0.63 0.63 100 1013.6
20260904122007 73 107 0.9 5.2 0.00 0.63 0.63 100 1013.5
20260904121508 73 105 0.9 7.0 0.00 0.63 0.63 100 1013.5
20260904121014 73 105 0.9 7.0 0.00 0.63 0.63 100 1013.6
20260904120509 73 134 0.9 3.5 0.00 0.63 0.63 100 1013.6
20260904115503 73 134 0.9 5.2 0.00 0.63 0.63 100 1013.4
20260904115006 73 166 0.9 5.2 0.00 0.63 0.63 100 1013.3
20260904114503 73 201 0.9 3.5 0.00 0.63 0.63 100 1013.5
20260904114002 73 133 0.9 3.5 0.00 0.63 0.63 100 1013.6
20260904113502 73 133 0.9 4.3 0.00 0.63 0.63 100 1013.6
20260904112448 73 133 0.0 2.6 0.01 0.63 0.63 100 1013.6
20260904111946 72 133 0.9 2.6 0.01 0.63 0.63 100 1013.4
20260904111445 72 94 0.0 1.7 0.01 0.63 0.63 100 1013.3
20260904110936 72 130 0.0 2.6 0.01 0.63 0.63 100 1013.3
20260904110433 72 110 0.0 2.6 0.01 0.63 0.63 100 1013.2
20260904105932 72 108 0.0 1.7 0.01 0.63 0.63 100 1013.1
20260904105436 72 144 0.0 0.9 0.01 0.63 0.63 100 1013.0
20260904104933 71 146 0.0 0.9 0.01 0.63 0.63 100 1012.8
20260904104435 71 144 0.0 0.9 0.01 0.63 0.63 100 1012.5
20260904103933 71 142 0.0 0.9 0.01 0.63 0.63 100 1012.5
20260904103435 72 145 0.0 0.9 0.01 0.63 0.63 100 1012.4
20260904102437 72 144 0.0 0.9 0.00 0.62 0.62 100 1012.4
20260904101437 72 144 0.0 0.9 0.00 0.62 0.62 100 1012.5
20260904100932 72 144 0.0 0.9 0.00 0.63 0.62 100 1012.5
20260904095430 72 144 0.0 0.9 0.00 0.63 0.62 100 1012.6
20260904094932 72 144 0.0 0.9 0.00 0.63 0.62 100 1012.6
20260904094430 72 144 0.0 0.9 0.00 0.63 0.62 100 1012.7
20260904093927 73 144 0.0 0.9 0.00 0.63 0.62 100 1012.7
20260904093419 73 144 0.0 0.9 0.00 0.63 0.62 100 1012.7
20260904092918 73 144 0.0 0.9 0.01 0.63 0.62 100 1012.7
20260904092418 73 144 0.0 0.9 0.01 0.63 0.62 100 1012.9
20260904091918 73 144 0.0 0.9 0.01 0.63 0.62 100 1013.0
20260904091417 73 144 0.0 0.9 0.01 0.63 0.62 100 1012.7
20260904090410 73 144 0.0 0.0 0.01 0.63 0.62 100 1012.7
20260904085911 73 144 0.0 0.0 0.01 0.63 0.62 100 1012.8
20260904085409 73 144 0.0 0.0 0.01 0.63 0.62 100 1012.9
20260904084909 73 144 0.0 0.0 0.02 0.63 0.62 100 1012.8
20260904084404 73 144 0.0 0.0 0.02 0.63 0.62 100 1012.8
20260904083912 73 144 0.0 0.9 0.02 0.63 0.62 100 1012.8
20260904083404 73 144 0.0 0.9 0.03 0.63 0.62 100 1012.9
20260904082404 73 144 0.0 0.0 0.03 0.63 0.61 100 1013.2
20260904081906 73 144 0.0 0.9 0.04 0.63 0.61 100 1013.2
20260904081408 73 144 0.0 0.9 0.04 0.65 0.61 100 1013.4
20260904080904 73 144 0.0 0.9 0.06 0.65 0.61 100 1013.3
20260904075900 72 144 0.0 0.9 0.09 0.65 0.61 99 1013.5
20260904075348 72 144 0.0 0.9 0.11 0.65 0.61 99 1013.4
20260904074848 73 144 0.0 0.9 0.11 0.64 0.60 99 1013.5
20260904074353 73 144 0.0 0.0 0.11 0.64 0.60 99 1013.6
20260904073854 73 144 0.0 0.9 0.12 0.64 0.60 99 1013.5
20260904072850 73 144 0.0 0.9 0.12 0.63 0.59 99 1013.5
20260904071901 73 144 0.0 0.0 0.12 0.61 0.57 98 1013.6
20260904070851 73 144 0.0 0.0 0.14 0.59 0.55 98 1013.6
20260904070344 73 144 0.0 0.9 0.14 0.57 0.53 98 1014.0
20260904065844 73 144 0.0 2.6 0.21 0.56 0.51 98 1013.9
20260904065353 73 144 0.0 2.6 0.41 0.54 0.50 98 1014.0
20260904064845 73 144 0.0 1.7 0.49 0.53 0.49 98 1014.2
20260904064347 73 144 0.0 1.7 0.49 0.53 0.48 98 1014.4
20260904063858 73 144 0.0 0.9 0.48 0.52 0.48 98 1014.4
20260904063343 73 144 0.0 2.6 0.47 0.51 0.47 97 1014.4
20260904062842 73 144 0.0 2.6 0.47 0.51 0.47 97 1014.5
20260904062344 73 150 0.0 1.7 0.46 0.50 0.45 97 1014.9
20260904061849 73 112 0.9 3.5 0.45 0.49 0.44 97 1015.2
20260904061342 73 148 0.9 3.5 0.43 0.47 0.43 97 1015.7
20260904060844 73 54 0.9 4.3 0.41 0.45 0.41 97 1015.9
20260904060344 74 190 1.7 10.4 0.39 0.43 0.38 97 1015.7
20260904055842 74 215 1.7 10.4 0.31 0.35 0.30 95 1015.5
20260904055345 76 27 1.7 14.8 0.09 0.13 0.07 93 1015.5
20260904054844 78 148 1.7 14.8 0.00 0.04 0.00 91 1015.5
20260904054503 79 157 0.9 14.8 0.00 0.04 0.00 99 1014.3
20260904053345 79 167 0.0 0.0 0.00 0.04 0.00 99 1013.0
20260904052843 79 167 0.0 0.0 0.00 0.04 0.00 99 1012.9
20260904052345 78 167 0.0 0.0 0.00 0.04 0.00 99 1012.8
20260904051843 78 167 0.0 0.0 0.00 0.04 0.00 99 1012.8
20260904051344 78 167 0.0 0.0 0.00 0.04 0.00 98 1012.9
20260904050841 78 167 0.0 0.0 0.00 0.04 0.00 98 1013.0
20260904050344 78 168 0.0 0.0 0.00 0.04 0.00 98 1013.1
20260904045837 78 167 0.0 0.0 0.00 0.04 0.00 98 1013.2
20260904045336 78 167 0.0 0.0 0.00 0.04 0.00 98 1013.3
20260904044840 78 167 0.0 0.0 0.00 0.04 0.00 98 1013.5
20260904044341 78 167 0.0 0.0 0.00 0.04 0.00 98 1013.5
20260904043837 78 167 0.0 0.0 0.00 0.04 0.00 98 1013.3
20260904043331 78 168 0.0 0.0 0.00 0.04 0.00 98 1013.4
20260904042842 78 168 0.0 0.0 0.00 0.04 0.00 97 1013.2
20260904041834 78 167 0.0 0.0 0.00 0.04 0.00 97 1013.2
20260904041332 78 167 0.0 0.0 0.00 0.04 0.00 97 1013.2
20260904040833 78 167 0.0 0.0 0.00 0.04 0.00 97 1013.3
20260904040330 79 167 0.0 0.0 0.00 0.04 0.00 97 1013.4
20260904035830 79 167 0.0 0.0 0.00 0.04 0.04 97 1013.5
20260904035334 79 167 0.0 0.0 0.00 0.04 0.04 97 1013.6
20260904034331 79 167 0.0 0.0 0.00 0.04 0.04 97 1013.9
20260904033833 79 167 0.0 0.0 0.00 0.04 0.04 97 1014.0
20260904032832 79 167 0.0 0.0 0.00 0.04 0.04 97 1014.0
20260904031834 79 167 0.0 0.0 0.00 0.04 0.04 96 1014.0
20260904030830 79 167 0.0 0.0 0.00 0.04 0.04 96 1014.1
20260904030332 79 167 0.0 0.0 0.00 0.04 0.04 96 1014.0
20260904025830 79 167 0.0 0.0 0.00 0.04 0.04 96 1014.0
20260904024832 79 167 0.0 0.0 0.00 0.04 0.04 95 1014.0
20260904024330 79 167 0.0 0.0 0.00 0.04 0.04 95 1014.0
20260904023831 79 167 0.0 0.0 0.00 0.04 0.04 95 1014.0
20260904023333 80 167 0.0 0.0 0.00 0.04 0.04 95 1014.0
20260904022831 80 168 0.0 0.0 0.00 0.04 0.04 95 1013.9
20260904022332 80 168 0.0 0.0 0.00 0.04 0.04 95 1014.0
20260904021833 80 167 0.0 0.0 0.00 0.04 0.04 95 1014.0
20260904021330 80 168 0.0 0.0 0.00 0.04 0.04 95 1014.1
20260904015834 80 168 0.0 0.0 0.00 0.04 0.04 94 1014.2
20260904015337 80 168 0.0 0.0 0.00 0.04 0.04 94 1014.4
20260904014332 80 168 0.0 0.0 0.00 0.04 0.04 94 1014.5
20260904013832 80 168 0.0 0.0 0.00 0.04 0.04 93 1014.6
20260904012320 80 167 0.0 0.0 0.00 0.04 0.04 93 1014.8
20260904011819 81 168 0.0 0.0 0.00 0.04 0.04 93 1014.8
20260904011320 81 168 0.0 0.0 0.00 0.04 0.04 92 1014.8
20260904010816 81 168 0.0 0.0 0.00 0.04 0.04 92 1014.8
20260904010314 81 168 0.0 0.0 0.00 0.04 0.04 91 1014.8
20260904005315 82 168 0.0 0.0 0.00 0.04 0.04 91 1014.8
20260904004812 82 167 0.0 0.0 0.00 0.04 0.04 90 1014.7
20260904004313 82 167 0.0 0.0 0.00 0.04 0.04 90 1014.6
20260904003812 82 167 0.0 0.0 0.00 0.04 0.04 90 1014.6
20260904003308 82 168 0.0 0.0 0.00 0.04 0.04 90 1014.4
20260904002818 82 168 0.0 0.0 0.00 0.04 0.04 89 1014.5
20260904002310 82 167 0.0 0.0 0.00 0.04 0.04 89 1014.6
20260904001807 83 168 0.0 0.0 0.00 0.04 0.04 89 1014.5
20260904001306 83 167 0.0 0.0 0.00 0.04 0.04 89 1014.3
20260904000809 83 168 0.0 0.0 0.00 0.04 0.04 88 1014.2
20260904000307 83 167 0.0 0.0 0.00 0.04 0.04 88 1014.0
20260903235805 83 167 0.0 0.0 0.00 0.04 0.04 87 1014.0
20260903235305 83 167 0.0 0.0 0.00 0.04 0.04 87 1013.8
20260903234800 84 167 0.0 0.0 0.00 0.04 0.04 87 1013.7
20260903234258 84 167 0.0 0.0 0.00 0.04 0.04 87 1013.9
20260903232756 84 167 0.0 0.0 0.00 0.04 0.04 86 1014.0